Left ArrowRight Arrow

Hourly Observations for February 7, 2021

Temp ( °F °C ) Dew Point ( °F °C ) Humidity (%) Winds ( mph kmh ) Pressure ( in mb ) Visibility ( mi km ) Precip ( " mm )
12:51 am 00:51 Clear 33 0.6 20 -6.7 58 58 N 3 6 30.11 1020 10 16 0.00 0.00
1:51 am 01:51 Clear 32 0 20 -6.7 61 61 N 3 6 30.10 1019 10 16 0.00 0.00
2:51 am 02:51 Clear 31 -0.6 20 -6.7 64 64 Calm 30.09 1019 10 16 0.00 0.00
3:51 am 03:51 Clear 31 -0.6 20 -6.7 64 64 N 6 9 30.06 1018 10 16 0.00 0.00
4:51 am 04:51 Cloudy 30 -1.1 20 -6.7 66 66 NNW 5 7 30.08 1019 10 16 0.00 0.00
5:51 am 05:51 Cloudy 32 0 21 -6.1 64 64 N 5 7 30.06 1018 10 16 0.00 0.00
6:51 am 06:51 Cloudy 32 0 20 -6.7 61 61 N 6 9 30.03 1017 10 16 0.00 0.00
7:51 am 07:51 Cloudy 33 0.6 20 -6.7 58 58 N 5 7 29.99 1016 10 16 0.00 0.00
8:51 am 08:51 Cloudy with Light Snow 33 0.6 20 -6.7 58 58 N 3 6 30.00 1016 6 10 0.00 0.00
9:02 am 09:02 Cloudy with Light Snow 33 0.6 20 -6.7 58 58 N 5 7 30.00 1016 6 10 0.00 0.00
9:18 am 09:18 Mostly Cloudy with Light Snow 32 0 21 -6.1 64 64 NNE 7 11 30.01 1016 1 2 0.00 0.00
9:22 am 09:22 Cloudy with Light Snow 31 -0.6 21 -6.1 67 67 NNE 6 9 30.01 1016 1 1 0.00 0.00
9:51 am 09:51 Cloudy with Light Snow 29 -1.7 24 -4.4 82 82 N 7 11 30.00 1016 1 1 0.02 0.51
10:16 am 10:16 Cloudy with Light Snow 29 -1.7 26 -3.3 89 89 N 7 11 29.99 1016 1 1 0.03 0.76
10:46 am 10:46 Cloudy with Snow 28 -2 27 -3 93 93 N 7 11 29.96 1015 0 0 0.06 1.52
10:51 am 10:51 Cloudy with Heavy Snow 29 -1.7 26 -3.3 89 89 N 8 13 29.96 1015 0 0 0.07 1.78
10:58 am 10:58 Mostly Cloudy with Heavy Snow 29 -1.7 26 -3.3 89 89 NNE 9 15 29.94 1014 0 0 0.01 0.25
11:14 am 11:14 Mostly Cloudy with Snow 29 -1.7 27 -2.8 92 92 NNE 7 11 29.93 1014 1 1 0.03 0.76
11:51 am 11:51 Cloudy with Light Snow 30 -1.1 27 -2.8 88 88 NNE 9 15 29.90 1013 1 1 0.05 1.27
12:05 pm 12:05 Cloudy with Light Snow 30 -1.1 27 -2.8 88 88 NNE 6 9 29.89 1012 1 2 0.00 0.00
12:34 pm 12:34 Cloudy with Light Snow 30 -1.1 27 -2.8 88 88 N 6 9 29.85 1011 1 1 0.01 0.25
12:51 pm 12:51 Cloudy with Light Snow 30 -1.1 27 -2.8 88 88 N 7 11 29.85 1011 0 0 0.02 0.51
12:58 pm 12:58 Mostly Cloudy with Light Snow 30 -1.1 27 -2.8 88 88 N 9 15 29.85 1011 0 0 0.01 0.25
1:07 pm 13:07 Mostly Cloudy with Light Snow 30 -1.1 27 -2.8 88 88 N 8 13 29.85 1011 1 1 0.02 0.51
1:22 pm 13:22 Mostly Cloudy with Snow 30 -1.1 27 -2.8 88 88 N 8 13 29.84 1011 0 0 0.03 0.76
1:33 pm 13:33 Cloudy with Snow 30 -1.1 27 -2.8 88 88 NNE 7 11 29.85 1011 0 0 0.05 1.27
1:51 pm 13:51 Cloudy with Snow 30 -1.1 27 -2.8 88 88 N 9 15 29.84 1011 0 0 0.06 1.52
2:51 pm 14:51 Cloudy with Snow 30 -1.1 28 -2.2 92 92 N 8 13 29.83 1010 0 0 0.05 1.27
3:41 pm 15:41 Cloudy with Snow 31 -0.6 28 -2.2 89 89 N 6 9 29.83 1010 1 2 0.02 0.51
3:51 pm 15:51 Cloudy with Light Snow 31 -0.6 28 -2.2 89 89 N 7 11 29.83 1010 2 3 0.02 0.51
4:51 pm 16:51 Cloudy with Mist and Fog 31 -0.6 28 -2.2 89 89 NNW 6 9 29.84 1010 4 6 0.00 0.00
5:15 pm 17:15 Cloudy with Mist and Fog 31 -0.6 27 -2.8 85 85 NW 6 9 29.85 1011 5 8 0.00 0.00
5:51 pm 17:51 Mostly Cloudy with Mist and Fog 30 -1.1 26 -3.3 85 85 NNW 6 9 29.85 1011 5 8 0.00 0.00
6:51 pm 18:51 Mostly Cloudy 29 -1.7 25 -3.9 85 85 NW 6 9 29.89 1012 10 16 0.00 0.00
7:22 pm 19:22 Mostly Cloudy 29 -1.7 25 -3.9 85 85 NW 5 7 29.90 1013 10 16 0.00 0.00
7:46 pm 19:46 Partly Cloudy 28 -2 23 -5 80 80 WNW 3 6 29.92 1013 10 16 0.00 0.00
7:51 pm 19:51 Mostly Clear 27 -2.8 23 -5 85 85 Calm 29.93 1013 10 16 0.00 0.00
8:51 pm 20:51 Clear 30 -1.1 21 -6.1 69 69 NW 12 19 29.98 1015 10 16 0.00 0.00
9:51 pm 21:51 Clear 28 -2.2 16 -8.9 60 60 NW 17 28 30.03 1017 10 16 0.00 0.00
10:51 pm 22:51 Clear 26 -3.3 13 -10.6 57 57 NW 13 20 30.07 1018 10 16 0.00 0.00
11:51 pm 23:51 Clear 24 -4.4 9 -12.8 52 52 NNW 18 30 30.11 1020 10 16 0.00 0.00

Powered by Vaisala Xweather